Newport News, VA

2:40 PM EST on December 16, 2017 (GMT -0500)
Newport News-Williamsburg International

Weather History for KPHF - January, 2014

Change the Weather History Date:

Thursday, January 23, 2014

  Actual Average Record
Temperature  
Mean Temperature 25 °F -  
Max Temperature 35 °F 50 °F 77 °F (1999)
Min Temperature 15 °F 31 °F 15 °F (2003)
Degree Days  
Heating Degree Days 40    
Moisture  
Dew Point 8 °F    
Average Humidity 49    
Maximum Humidity 74    
Minimum Humidity 34    
Precipitation  
Precipitation 0.00 in - - ()
Sea Level Pressure  
Sea Level Pressure 30.26 in    
Wind  
Wind Speed 4 mph (NW)    
Max Wind Speed 14 mph    
Max Gust Speed 21 mph    
Visibility 10 miles    
Events      
Averages and records for this station are not official NWS values.
T = Trace of Precipitation, MM = Missing Value Source: NWS Daily Summary

Daily Weather History Graph

Daily Weather History Graph

Search for Another Location

Airport or City:

Trip Planner

Search our weather history database for the weather conditions in past years. The results will help you decide how hot, cold, wet, or windy it might be!

Date:

Astronomy

Jan. 23, 2014 Rise Set
Actual Time 7:15 AM EST 5:21 PM EST
Civil Twilight 6:47 AM EST 5:48 PM EST
Nautical Twilight 6:15 AM EST 6:20 PM EST
Astronomical Twilight 5:44 AM EST 6:51 PM EST
Moon No Moon Rise 10:59 AM EST (1/23)
Length of Visible Light 11h 01m
Length of Day
10h 06m
Waning Gibbous, 55% of the Moon is Illuminated
Jan 23
Waning Gibbous
Jan 24
Last Quarter
Jan 30
New
Feb 6
First Quarter
Feb 14
Full

Hourly Weather History & Observations

Time (EST) Temp. Windchill Dew Point Humidity Pressure Visibility Wind Dir Wind Speed Gust Speed Precip Events Conditions
12:54 AM 17.1 °F - 6.1 °F 62% 30.14 in 10.0 mi Calm Calm - N/A   Overcast
1:54 AM 17.1 °F - 8.1 °F 68% 30.13 in 10.0 mi Calm Calm - N/A   Overcast
2:54 AM 16.0 °F - 8.1 °F 71% 30.15 in 10.0 mi Calm Calm - N/A   Scattered Clouds
3:54 AM 15.1 °F - 8.1 °F 74% 30.16 in 10.0 mi Calm Calm - N/A   Overcast
4:54 AM 18.0 °F - 9.0 °F 68% 30.18 in 10.0 mi Calm Calm - N/A   Overcast
5:54 AM 17.1 °F - 10.0 °F 74% 30.20 in 10.0 mi Calm Calm - N/A   Overcast
6:54 AM 15.1 °F 7.7 °F 5.0 °F 64% 30.22 in 10.0 mi NNW 4.6 mph - N/A   Clear
7:54 AM 15.1 °F - 6.1 °F 68% 30.22 in 10.0 mi Calm Calm - N/A   Clear
8:54 AM 23.0 °F - 10.0 °F 58% 30.24 in 10.0 mi Calm Calm - N/A   Clear
9:54 AM 27.0 °F 21.6 °F 9.0 °F 47% 30.27 in 10.0 mi West 4.6 mph - N/A   Clear
10:54 AM 28.9 °F 20.4 °F 7.0 °F 40% 30.27 in 10.0 mi West 9.2 mph - N/A   Clear
11:54 AM 32.0 °F 23.6 °F 10.0 °F 40% 30.26 in 10.0 mi West 10.4 mph - N/A   Clear
12:54 PM 34.0 °F 26.0 °F 9.0 °F 35% 30.22 in 10.0 mi NW 10.4 mph 20.7 mph N/A   Clear
1:54 PM 35.1 °F 25.9 °F 10.0 °F 35% 30.21 in 10.0 mi WNW 13.8 mph 20.7 mph N/A   Clear
2:54 PM 35.1 °F 26.4 °F 9.0 °F 34% 30.21 in 10.0 mi WNW 12.7 mph - N/A   Clear
3:54 PM 35.1 °F 27.9 °F 10.0 °F 35% 30.24 in 10.0 mi WNW 9.2 mph - N/A   Clear
4:54 PM 34.0 °F 26.0 °F 10.9 °F 38% 30.26 in 10.0 mi West 10.4 mph - N/A   Clear
5:54 PM 33.1 °F 24.9 °F 9.0 °F 37% 30.29 in 10.0 mi West 10.4 mph - N/A   Clear
6:54 PM 32.0 °F 24.2 °F 9.0 °F 38% 30.32 in 10.0 mi WNW 9.2 mph - N/A   Partly Cloudy
7:54 PM 30.0 °F 22.4 °F 5.0 °F 35% 30.34 in 10.0 mi WNW 8.1 mph - N/A   Clear
8:54 PM 28.0 °F 17.5 °F 8.1 °F 43% 30.38 in 10.0 mi North 12.7 mph - N/A   Partly Cloudy
9:54 PM 25.0 °F 15.5 °F 5.0 °F 43% 30.41 in 10.0 mi North 9.2 mph 18.4 mph N/A   Clear
10:54 PM 23.0 °F 12.4 °F -0.0 °F 37% 30.43 in 10.0 mi North 10.4 mph 19.6 mph N/A   Clear
11:54 PM 21.0 °F 9.9 °F -0.9 °F 38% 30.44 in 10.0 mi North 10.4 mph - N/A   Clear